| time (UTC) | temp F | wind direction | speed MPH | gust MPH | rain 1hr in | rain 24hr in | rain mn in | humidity % | barometer mb |
| 20260904223037 | 72 | 258 | 3.0 | 7.0 | 0.00 | 0.09 | 0.00 | 47 | 1007.5 |
| 20260904221536 | 72 | 300 | 3.0 | 8.0 | 0.00 | 0.09 | 0.00 | 46 | 1007.5 |
| 20260904214538 | 73 | 293 | 3.0 | 7.0 | 0.00 | 0.09 | 0.00 | 45 | 1007.6 |
| 20260904213031 | 74 | 307 | 3.0 | 7.0 | 0.00 | 0.09 | 0.00 | 45 | 1007.6 |
| 20260904204609 | 71 | 324 | 3.0 | 6.0 | 0.00 | 0.09 | 0.00 | 47 | 1007.7 |
| 20260904203029 | 73 | 324 | 2.0 | 6.0 | 0.00 | 0.09 | 0.00 | 47 | 1007.8 |
| 20260904200030 | 71 | 272 | 3.0 | 10.0 | 0.00 | 0.09 | 0.00 | 50 | 1008.1 |
| 20260904194527 | 70 | 285 | 3.0 | 6.0 | 0.00 | 0.09 | 0.00 | 53 | 1008.2 |
| 20260904193029 | 69 | 293 | 3.0 | 6.0 | 0.00 | 0.09 | 0.00 | 54 | 1008.5 |
| 20260904191531 | 70 | 263 | 3.0 | 9.0 | 0.00 | 0.09 | 0.00 | 54 | 1008.6 |
| 20260904190031 | 70 | 278 | 3.0 | 8.0 | 0.00 | 0.09 | 0.00 | 56 | 1008.6 |
| 20260904184530 | 70 | 279 | 3.0 | 7.0 | 0.00 | 0.09 | 0.00 | 56 | 1008.7 |
| 20260904183031 | 68 | 296 | 2.0 | 5.0 | 0.00 | 0.09 | 0.00 | 58 | 1008.6 |
| 20260904181538 | 66 | 323 | 2.0 | 5.0 | 0.00 | 0.09 | 0.00 | 61 | 1008.7 |
| 20260904180029 | 66 | 309 | 1.0 | 4.0 | 0.00 | 0.09 | 0.00 | 64 | 1008.7 |
| 20260904174530 | 64 | 287 | 1.0 | 5.0 | 0.00 | 0.09 | 0.00 | 66 | 1008.7 |
| 20260904173031 | 64 | 281 | 2.0 | 4.0 | 0.00 | 0.09 | 0.00 | 67 | 1008.8 |
| 20260904171531 | 65 | 298 | 2.0 | 6.0 | 0.00 | 0.09 | 0.00 | 65 | 1008.7 |
| 20260904170034 | 65 | 326 | 1.0 | 3.0 | 0.00 | 0.09 | 0.00 | 66 | 1008.8 |
| 20260904164532 | 63 | 323 | 1.0 | 4.0 | 0.00 | 0.09 | 0.00 | 71 | 1008.8 |
| 20260904163028 | 62 | 343 | 3.0 | 6.0 | 0.00 | 0.09 | 0.00 | 72 | 1008.8 |
| 20260904161531 | 61 | 328 | 2.0 | 5.0 | 0.00 | 0.09 | 0.00 | 74 | 1008.7 |
| 20260904154529 | 58 | 44 | 1.0 | 5.0 | 0.00 | 0.09 | 0.00 | 80 | 1008.7 |
| 20260904153030 | 57 | 90 | 0.0 | 1.0 | 0.00 | 0.09 | 0.00 | 81 | 1008.6 |
| 20260904151604 | 57 | 90 | 0.0 | 1.0 | 0.00 | 0.09 | 0.00 | 83 | 1008.5 |
| 20260904150035 | 55 | 90 | 0.0 | 0.0 | 0.00 | 0.09 | 0.00 | 84 | 1008.4 |
| 20260904144530 | 54 | 99 | 1.0 | 4.0 | 0.00 | 0.09 | 0.00 | 85 | 1008.3 |
| 20260904143033 | 54 | 111 | 4.0 | 5.0 | 0.00 | 0.09 | 0.00 | 85 | 1008.2 |
| 20260904141536 | 54 | 107 | 3.0 | 6.0 | 0.00 | 0.09 | 0.00 | 85 | 1008.0 |
| 20260904140032 | 54 | 112 | 3.0 | 4.0 | 0.00 | 0.09 | 0.00 | 85 | 1007.9 |
| 20260904134530 | 53 | 112 | 3.0 | 4.0 | 0.00 | 0.09 | 0.00 | 86 | 1007.6 |
| 20260904133031 | 53 | 112 | 2.0 | 4.0 | 0.00 | 0.09 | 0.00 | 86 | 1007.5 |
| 20260904131607 | 54 | 112 | 3.0 | 5.0 | 0.00 | 0.09 | 0.00 | 88 | 1007.3 |
| 20260904130030 | 54 | 112 | 2.0 | 4.0 | 0.00 | 0.09 | 0.00 | 88 | 1007.2 |
| 20260904124530 | 54 | 112 | 2.0 | 4.0 | 0.00 | 0.09 | 0.00 | 88 | 1007.2 |
| 20260904123035 | 54 | 112 | 2.0 | 3.0 | 0.00 | 0.09 | 0.00 | 87 | 1007.2 |
| 20260904121527 | 54 | 112 | 0.0 | 2.0 | 0.00 | 0.09 | 0.00 | 87 | 1007.1 |
| 20260904120029 | 54 | 112 | 0.0 | 3.0 | 0.00 | 0.09 | 0.00 | 86 | 1007.1 |
| 20260904114530 | 54 | 112 | 1.0 | 2.0 | 0.00 | 0.09 | 0.00 | 85 | 1007.0 |
| 20260904113037 | 54 | 112 | 1.0 | 2.0 | 0.00 | 0.09 | 0.00 | 85 | 1006.8 |
| 20260904111529 | 54 | 112 | 1.0 | 2.0 | 0.00 | 0.09 | 0.00 | 85 | 1006.7 |
| 20260904110028 | 54 | 112 | 2.0 | 2.0 | 0.00 | 0.09 | 0.00 | 85 | 1006.6 |
| 20260904104531 | 54 | 112 | 1.0 | 2.0 | 0.00 | 0.09 | 0.00 | 85 | 1006.5 |
| 20260904103031 | 54 | 112 | 0.0 | 2.0 | 0.00 | 0.09 | 0.00 | 86 | 1006.4 |
| 20260904100036 | 54 | 112 | 1.0 | 2.0 | 0.00 | 0.09 | 0.00 | 84 | 1006.1 |
| 20260904094603 | 54 | 112 | 2.0 | 3.0 | 0.00 | 0.09 | 0.00 | 84 | 1006.0 |
| 20260904093109 | 54 | 112 | 3.0 | 4.0 | 0.00 | 0.09 | 0.00 | 84 | 1006.0 |
| 20260904091531 | 54 | 112 | 2.0 | 4.0 | 0.00 | 0.09 | 0.00 | 84 | 1005.9 |
| 20260904090029 | 54 | 112 | 2.0 | 4.0 | 0.00 | 0.09 | 0.00 | 82 | 1005.9 |
| 20260904084532 | 54 | 112 | 4.0 | 5.0 | 0.00 | 0.09 | 0.00 | 80 | 1005.9 |
| 20260904083032 | 55 | 112 | 2.0 | 4.0 | 0.00 | 0.09 | 0.00 | 79 | 1005.8 |
| 20260904080034 | 54 | 157 | 0.0 | 0.0 | 0.00 | 0.09 | 0.00 | 82 | 1005.7 |
| 20260904074530 | 54 | 157 | 0.0 | 0.0 | 0.00 | 0.09 | 0.00 | 80 | 1005.7 |
| 20260904073031 | 54 | 157 | 0.0 | 0.0 | 0.00 | 0.09 | 0.00 | 78 | 1005.6 |
| 20260904071529 | 55 | 157 | 0.0 | 2.0 | 0.00 | 0.09 | 0.00 | 76 | 1005.6 |
| 20260904070033 | 55 | 169 | 1.0 | 2.0 | 0.00 | 0.09 | 0.00 | 76 | 1005.4 |
| 20260904064529 | 55 | 200 | 2.0 | 4.0 | 0.00 | 0.09 | 0.09 | 76 | 1005.4 |
| 20260904063031 | 55 | 202 | 2.0 | 4.0 | 0.00 | 0.09 | 0.09 | 77 | 1005.3 |
| 20260904061530 | 56 | 201 | 0.0 | 2.0 | 0.00 | 0.09 | 0.09 | 76 | 1005.2 |
| 20260904054532 | 57 | 203 | 1.0 | 3.0 | 0.00 | 0.09 | 0.09 | 75 | 1005.2 |
| 20260904053037 | 56 | 214 | 1.0 | 7.0 | 0.00 | 0.09 | 0.09 | 77 | 1005.2 |
| 20260904050029 | 56 | 228 | 1.0 | 8.0 | 0.00 | 0.09 | 0.09 | 78 | 1005.3 |
| 20260904041531 | 56 | 231 | 3.0 | 7.0 | 0.00 | 0.09 | 0.09 | 81 | 1005.3 |
| 20260904040030 | 56 | 230 | 3.0 | 9.0 | 0.00 | 0.09 | 0.09 | 83 | 1005.3 |
| 20260904034531 | 56 | 229 | 3.0 | 8.0 | 0.00 | 0.09 | 0.09 | 84 | 1005.2 |
| 20260904033028 | 56 | 228 | 3.0 | 8.0 | 0.04 | 0.09 | 0.09 | 86 | 1004.9 |
| 20260904031531 | 56 | 228 | 3.0 | 7.0 | 0.06 | 0.10 | 0.09 | 87 | 1004.8 |
| 20260904023031 | 57 | 202 | 3.0 | 7.0 | 0.03 | 0.16 | 0.03 | 84 | 1004.9 |
| 20260904021530 | 58 | 247 | 3.0 | 9.0 | 0.01 | 0.14 | 0.03 | 82 | 1004.7 |
| 20260904020028 | 58 | 242 | 4.0 | 9.0 | 0.01 | 0.14 | 0.02 | 77 | 1004.6 |
| 20260904014530 | 58 | 242 | 6.0 | 11.0 | 0.00 | 0.13 | 0.02 | 76 | 1004.3 |
| 20260904013028 | 58 | 247 | 5.0 | 11.0 | 0.00 | 0.13 | 0.02 | 79 | 1004.2 |
| 20260904011532 | 58 | 261 | 5.0 | 14.0 | 0.00 | 0.14 | 0.02 | 81 | 1004.3 |
| 20260904010029 | 58 | 253 | 4.0 | 9.0 | 0.01 | 0.14 | 0.02 | 81 | 1004.4 |
| 20260904004530 | 58 | 246 | 5.0 | 10.0 | 0.02 | 0.14 | 0.02 | 81 | 1004.4 |
| 20260904003032 | 58 | 253 | 8.0 | 16.0 | 0.02 | 0.14 | 0.02 | 79 | 1004.3 |
| 20260904001558 | 59 | 251 | 8.0 | 17.0 | 0.02 | 0.14 | 0.01 | 76 | 1004.1 |
| 20260904000032 | 62 | 257 | 9.0 | 16.0 | 0.01 | 0.13 | 0.00 | 69 | 1004.1 |
| 20260903234530 | 63 | 260 | 8.0 | 18.0 | 0.00 | 0.12 | 0.00 | 62 | 1004.1 |
| 20260903233031 | 64 | 265 | 8.0 | 17.0 | 0.00 | 0.12 | 0.00 | 62 | 1004.0 |
| 20260903230032 | 68 | 289 | 5.0 | 15.0 | 0.00 | 0.12 | 0.00 | 51 | 1004.0 |
| 20260903224531 | 69 | 263 | 3.0 | 9.0 | 0.00 | 0.12 | 0.00 | 50 | 1004.0 |